JP7FSO Weather Reports


time (UTC)temp
C
wind
direction
speed
KPH
gust
KPH
rain 1hr
cm
rain 24hr
cm
rain mn
cm
humidity
%
barometer
mb
20260831041510 27 129 0.0 0.0 0.00 0.00 0.03 63 1007.1
20260831040015 27 174 0.0 0.0 0.00 0.00 0.03 65 1007.0
20260831034520 26 257 0.0 0.0 0.00 0.00 0.03 66 1007.2
20260831033009 26 209 0.0 0.0 0.00 0.00 0.03 66 1007.2
20260831031500 26 245 0.0 0.0 0.00 0.00 0.03 66 1007.2
20260831030008 26 263 0.0 0.0 0.00 0.00 0.03 66 1007.2
20260831023104 26 156 0.0 0.0 0.00 0.00 0.03 67 1007.2
20260831021556 26 178 0.0 0.0 0.00 0.00 0.03 66 1007.3
20260831020031 25 111 1.6 0.0 0.00 0.00 0.03 69 1007.2
20260831014626 25 137 1.6 0.0 0.00 0.00 0.03 72 1007.3
20260831013003 23 113 1.6 0.0 0.00 0.00 0.03 79 1007.3
20260831011600 23 122 0.0 0.0 0.00 0.00 0.03 85 1007.7
20260831010018 22 143 0.0 0.0 0.00 0.00 0.03 90 1007.7
20260831004554 22 121 0.0 0.0 0.00 0.00 0.03 93 1007.7
20260831003029 21 191 0.0 0.0 0.00 0.00 0.03 95 1007.5
20260831001533 21 155 0.0 0.0 0.00 0.00 0.03 96 1007.3
20260831000013 21 94 0.0 0.0 0.00 0.00 0.03 96 1007.3
20260830234554 21 123 0.0 0.0 0.00 0.00 0.03 97 1007.3
20260830233020 21 113 0.0 0.0 0.00 0.00 0.03 98 1007.1
20260830231525 20 153 0.0 0.0 0.00 0.00 0.03 98 1007.0
20260830230031 20 153 0.0 0.0 0.00 0.00 0.03 98 1007.0
20260830223012 20 106 0.0 0.0 0.00 0.00 0.03 98 1006.9
20260830221516 20 106 0.0 0.0 0.00 0.00 0.03 98 1006.8
20260830220114 19 106 0.0 0.0 0.00 0.00 0.03 98 1006.8
20260830214506 19 114 0.0 0.0 0.00 0.00 0.03 98 1006.8
20260830213053 19 114 0.0 0.0 0.00 0.00 0.03 97 1006.8
20260830211602 19 110 0.0 0.0 0.00 0.00 0.03 97 1006.7
20260830210107 19 110 0.0 0.0 0.00 0.00 0.03 97 1006.4
20260830204600 19 110 0.0 0.0 0.00 0.00 0.03 97 1006.3
20260830203027 18 110 0.0 0.0 0.00 0.00 0.03 97 1006.3
20260830200020 18 110 0.0 0.0 0.00 0.00 0.03 97 1005.9
20260830194513 18 110 0.0 0.0 0.00 0.00 0.03 97 1005.7
20260830191518 18 110 0.0 0.0 0.00 0.00 0.03 97 1005.5
20260830184512 18 110 0.0 0.0 0.00 0.00 0.03 97 1005.2
20260830183016 18 110 0.0 0.0 0.00 0.00 0.03 97 1005.1
20260830181501 18 110 0.0 0.0 0.00 0.00 0.03 97 1005.1
20260830180013 18 110 0.0 0.0 0.00 0.00 0.03 97 1005.1
20260830174504 18 110 0.0 0.0 0.00 0.00 0.03 97 1005.2
20260830173021 19 110 0.0 0.0 0.00 0.00 0.03 97 1005.1
20260830171514 19 108 0.0 0.0 0.00 0.00 0.03 97 1004.8
20260830170023 19 106 0.0 0.0 0.00 0.00 0.03 97 1004.7
20260830164558 19 106 0.0 0.0 0.00 0.00 0.03 96 1004.7
20260830163035 19 110 0.0 0.0 0.00 0.00 0.00 96 1004.7
20260830161506 19 108 0.0 0.0 0.00 0.00 0.00 96 1004.7
20260830154604 19 108 0.0 0.0 0.00 0.00 0.00 96 1004.7
20260830153054 19 108 0.0 0.0 0.00 0.00 0.00 96 1004.7
20260830151510 19 108 0.0 0.0 0.00 0.00 0.00 96 1004.7
20260830150012 19 108 0.0 0.0 0.00 0.00 1.32 96 1004.7
20260830144506 19 108 0.0 0.0 0.00 0.00 1.32 96 1004.7
20260830143039 19 108 0.0 0.0 0.00 0.00 1.32 96 1004.5
20260830141533 20 108 0.0 0.0 0.00 0.00 1.32 96 1004.7
20260830140012 20 108 0.0 0.0 0.00 0.00 1.32 96 1004.6
20260830134535 20 108 0.0 0.0 0.00 0.00 1.32 96 1004.4
20260830133005 20 108 0.0 0.0 0.00 0.00 1.32 96 1004.4
20260830131533 20 108 0.0 0.0 0.00 0.00 1.32 95 1004.2
20260830130002 20 108 0.0 0.0 0.00 0.00 1.30 95 1004.3
20260830124601 20 109 0.0 0.0 0.00 0.00 1.30 95 1004.3
20260830123021 20 109 0.0 0.0 0.00 0.00 1.30 95 1004.2
20260830121520 20 304 0.0 0.0 0.00 0.00 1.30 94 1004.3
20260830120003 20 294 0.0 0.0 0.00 0.00 1.27 94 1004.4
20260830114532 20 175 0.0 0.0 0.00 0.00 1.27 94 1004.2
20260830111505 20 104 0.0 0.0 0.00 0.00 1.22 93 1004.1
20260830110020 20 104 0.0 0.0 0.00 0.00 1.22 93 1003.9
20260830104557 20 104 0.0 0.0 0.00 0.00 1.19 92 1003.7
20260830103103 20 104 0.0 0.0 0.00 0.00 1.19 92 1003.6
20260830101517 20 104 0.0 0.0 0.00 0.00 1.17 92 1003.2
20260830094553 20 104 0.0 0.0 0.00 0.00 1.02 91 1003.0
20260830093104 20 104 0.0 0.0 0.00 0.00 0.89 91 1002.6
20260830091530 20 104 0.0 0.0 0.00 0.00 0.84 90 1002.6
20260830090015 20 104 0.0 0.0 0.00 0.00 0.79 90 1002.6
20260830081525 21 104 0.0 0.0 0.00 0.00 0.61 89 1002.2
20260830080012 21 104 0.0 0.0 0.00 0.00 0.58 88 1002.3
20260830074504 21 104 0.0 0.0 0.00 0.00 0.53 88 1002.2
20260830073059 21 104 0.0 0.0 0.00 0.00 0.51 88 1002.1
20260830071527 21 104 0.0 0.0 0.00 0.00 0.51 87 1002.1
20260830070002 21 104 0.0 0.0 0.00 0.00 0.48 87 1002.1
20260830064513 21 103 0.0 0.0 0.00 0.00 0.48 87 1001.8
20260830063017 21 112 0.0 0.0 0.00 0.00 0.48 87 1001.7
20260830061539 21 94 0.0 0.0 0.00 0.00 0.48 88 1001.5
20260830060015 21 105 0.0 0.0 0.00 0.00 0.48 88 1001.6
20260830054529 21 104 0.0 0.0 0.00 0.00 0.48 89 1001.6
20260830053009 21 115 0.0 0.0 0.00 0.00 0.48 89 1001.6
20260830044608 21 125 0.0 0.0 0.00 0.00 0.48 91 1002.1
20260830043021 21 114 0.0 0.0 0.00 0.00 0.48 91 1002.2